Tracking 30260 objects as of 14-Feb-2025
HD Live streaming from Space Station
objects crossing your sky now

CZ-4 DEB

Track CZ-4 DEB now!
10-day predictions


NORAD ID: 20974
Int'l Code: 1990-081CG
Perigee: 780.7 km
Apogee: 800.8 km
Inclination: 98.5 °
Period: 100.5 minutes
Semi major axis: 7161 km
RCS: 0.0086 m2 (small)
Launch date: September 3, 1990
Source: People's Republic of China (PRC)
Launch site: Taiyaun Space Center, China (TSC)

Note: This is SATELLITE DEBRIS
Your satellite tracking list
Your tracking list is empty




NASA's NSSDC Master Catalog

Two Line Element Set (TLE):
1 20974U 90081CG  25044.92466122  .00003049  00000-0  11410-2 0  9992
2 20974  98.5425  44.4235 0014032 349.6010  39.8390 14.32433203780149
Source of the keplerian elements: AFSPC